Home   Weather   Fukuoka   Past weeks

Flag for Japan Past Weather in Fukuoka, Japan — Yesterday and Last 2 Weeks

Now
73 °F

Broken clouds.


Feels Like: 73 °F
Forecast: 74 / 83 °F
Wind: 2 mph from North

Location: Fukuoka Airport

Current Time: Sep 25, 2016 at 7:42:15 AM

Latest Report: Sep 25, 2016 at 7:00 AM


Visibility: N/A

Pressure: 29.98 "Hg

Humidity: 83%

Dew Point: 68 °F

Location of FukuokaLocation

Past Weather in Fukuoka — Graph

°F

Fukuoka Temperature Yesterday

Maximum temperature yesterday: 82 °F (at 11:00 AM)
Minimum temperature yesterday: 72 °F (at 12:00 AM)
Average temperature yesterday: 76 °F

High & Low Weather Summary for the Past Weeks

 TemperatureHumidityPressure
High90 °F (Sep 17, 2:00 PM)94% (Sep 12, 5:30 AM)30.04 "Hg (Sep 12, 5:30 AM)
Low66 °F (Sep 21, 3:30 AM)50% (Sep 21, 9:00 AM)29.59 "Hg (Sep 20, 1:00 AM)
Average76 °F76%29.89 "Hg
* Reported Sep 10 6:00 AM — Sep 25 6:30 AM, Fukuoka, Weather by CustomWeather, © 2016

Note: Actual official high and low records may vary slightly from our data, if they occured in-between our weather recording intervals... More about our weather records

Advertising

Fukuoka Weather History for the Previous 24 Hours

Scroll right to see more
 ConditionsComfort  
Time TempWeatherWind HumidityBarometerVisibility
6:30 AM
Sun, Sep 25
73 °FBroken clouds.1 mph83%29.95 "HgN/A
6:00 AM72 °FPartly cloudy.2 mph88%29.95 "HgN/A
5:30 AM72 °FPassing clouds.2 mph88%29.95 "HgN/A
5:00 AM72 °FPartly cloudy.No wind88%29.92 "HgN/A
4:30 AM73 °FPartly cloudy.No wind83%29.92 "HgN/A
4:00 AM73 °FPartly cloudy.No wind83%29.92 "HgN/A
3:30 AM73 °FPartly cloudy.2 mph83%29.92 "HgN/A
3:00 AM73 °FPassing clouds.2 mph83%29.92 "HgN/A
2:30 AM73 °FPartly cloudy.No wind83%29.95 "HgN/A
2:00 AM73 °FPassing clouds.3 mph83%29.95 "HgN/A
1:30 AM73 °FPassing clouds.2 mph83%29.95 "HgN/A
1:00 AM73 °FPassing clouds.2 mph83%29.95 "HgN/A
12:30 AM73 °FPassing clouds.2 mph83%29.95 "HgN/A
12:00 AM73 °FPassing clouds.5 mph83%29.95 "HgN/A
11:30 PM
Sat, Sep 24
73 °FPassing clouds.3 mph83%29.95 "HgN/A
11:00 PM75 °FPassing clouds.3 mph78%29.95 "HgN/A
10:30 PM75 °FPassing clouds.2 mph78%29.95 "HgN/A
10:00 PM75 °FPassing clouds.3 mph78%29.95 "HgN/A
9:30 PM75 °FPassing clouds.5 mph83%29.95 "HgN/A
9:00 PM75 °FPassing clouds.5 mph78%29.95 "HgN/A
8:30 PM75 °FPartly cloudy.5 mph83%29.95 "HgN/A
8:00 PM77 °FPartly cloudy.3 mph74%29.95 "HgN/A
7:30 PM77 °FPassing clouds.5 mph74%29.95 "HgN/A
7:00 PM79 °FPartly cloudy.5 mph74%29.92 "HgN/A
6:30 PM79 °FPassing clouds.6 mph74%29.92 "HgN/A
6:00 PM79 °FPartly sunny.7 mph70%29.92 "HgN/A
5:30 PM79 °FPartly sunny.7 mph74%29.92 "HgN/A
5:00 PM81 °FPartly sunny.8 mph70%29.89 "HgN/A
4:30 PM82 °FPartly sunny.7 mph66%29.89 "HgN/A
4:00 PM81 °FPartly sunny.7 mph70%29.89 "HgN/A
3:30 PM81 °FPartly sunny.7 mph70%29.89 "HgN/A
3:00 PM81 °FPartly sunny.8 mph66%29.89 "HgN/A
2:30 PM82 °FPartly sunny.8 mph66%29.89 "HgN/A
2:00 PM82 °FPartly sunny.8 mph62%29.89 "HgN/A
1:30 PM82 °FPartly sunny.10 mph62%29.92 "HgN/A
1:00 PM82 °FPartly sunny.10 mph62%29.92 "HgN/A
12:30 PM82 °FScattered clouds.8 mph62%29.92 "HgN/A
12:00 PM81 °FScattered clouds.6 mph62%29.95 "HgN/A
11:30 AM81 °FScattered clouds.9 mph62%29.95 "HgN/A
11:00 AM82 °FScattered clouds.3 mph55%29.95 "HgN/A
10:30 AM79 °FBroken clouds.3 mph61%29.95 "HgN/A
10:00 AM79 °FPartly sunny.2 mph61%29.98 "HgN/A
9:30 AM77 °FBroken clouds.2 mph65%29.98 "HgN/A
9:00 AM77 °FPartly sunny.1 mph69%29.98 "HgN/A
8:30 AM75 °FPartly sunny.1 mph74%29.98 "HgN/A
8:00 AM73 °FPartly sunny.2 mph74%29.98 "HgN/A
7:30 AM72 °FPartly sunny.3 mph83%29.95 "HgN/A
7:00 AM72 °FPartly sunny.5 mph83%29.95 "HgN/A
Weather by CustomWeather, © 2016

See weather overviewHow to use our weather pages